Location: Unspecified
(43.4680°N, 87.1740°E)
Time: 12:12:46
(UTC+00:00)

Cosmos 44 - Pass Details

Date: 17 April 2021
Orbit: 571 x 791 km, 65.1° (Epoch: 14 May)

Event Time Altitude Azimuth Distance (km) Brightness Sun altitude
Rises 13:36:54 0° 177° (S) 3,054 6.4 -7.7°
Reaches altitude 10° 13:39:30 10° 164° (SSE) 2,181 5.5 -8.1°
Maximum altitude 13:43:32 25° 110° (ESE) 1,467 4.4 -8.8°
Drops below altitude 10° 13:47:45 10° 57° (ENE) 2,297 5.7 -9.5°
Sets 13:50:35 0° 45° (NE) 3,254 6.6 -10.0°
